Home > Time Zones > World Clock > Weather > Spain > Ceuta > Past weeks

Flag for Spain Weather past 2 weeks in Ceuta, Ceuta, Spain

Now
61 °F

Clear.


Feels Like: 61 °F
Forecast: 62 / 66 °F
Wind: 17 mph from East

Location: Gibraltar Airport

Current Time: Apr 21, 2015 at 5:22:02 AM

Latest Report: Apr 21, 2015 at 4:50 AM


Visibility: N/A

Pressure: 30.07 "Hg

Humidity: 88%

Dew point: 57 °F

Location of CeutaLocation

Historic Weather in Ceuta — Graph

°F

Ceuta temperature yesterday

Maximum temperature yesterday: 64 °F (at 1:50 PM)
Minimum temperature yesterday: 57 °F (at 7:50 AM)
Average temperature yesterday: 62 °F

Past Weeks' High & Low Weather Summary

 TemperatureHumidityPressure
High73 °F (Apr 18, 2:50 PM)100% (Apr 6, 5:50 AM)30.24 "Hg (Apr 6, 5:50 AM)
Low55 °F (Apr 9, 4:50 AM)38% (Apr 17, 5:50 PM)29.89 "Hg (Apr 6, 3:50 AM)
Average61 °F78%30.10 "Hg
* Reported Apr 6 3:50 AM — Apr 21 3:50 AM, Ceuta, Weather by CustomWeather, © 2015

Note: Actual official high and low records may vary slightly from our data, if they occured in-between our weather recording intervals... More about our weather records

Advertising

Ceuta weather history for previous 24 hours

 ConditionsComfort  
Time TempWeatherWind HumidityBarometerVisibility
3:50 AM
Tue, Apr 21
61 °FClear.21 mph83%30.07 "HgN/A
2:50 AM61 °FClear.22 mph77%30.07 "HgN/A
1:50 AM61 °FPassing clouds.21 mph77%30.09 "HgN/A
12:50 AM63 °FPassing clouds.21 mph73%30.09 "HgN/A
11:50 PM
Mon, Apr 20
63 °FPassing clouds.22 mph73%30.09 "HgN/A
10:50 PM61 °FPassing clouds.15 mph88%30.09 "HgN/A
8:50 PM63 °FBroken clouds.13 mph88%30.07 "HgN/A
7:50 PM63 °FBroken clouds.15 mph88%30.07 "HgN/A
6:50 PM63 °FPartly sunny.15 mph83%30.07 "HgN/A
5:50 PM63 °FPartly sunny.14 mph83%30.07 "HgN/A
4:50 PM64 °FScattered clouds.12 mph78%30.07 "HgN/A
3:50 PM64 °FScattered clouds.16 mph83%30.07 "HgN/A
2:50 PM64 °FScattered clouds.13 mph78%30.09 "HgN/A
1:50 PM64 °FBroken clouds.12 mph78%30.09 "HgN/A
12:50 PM63 °FBroken clouds.12 mph83%30.09 "HgN/A
11:50 AM63 °FBroken clouds.12 mph83%30.09 "HgN/A
10:50 AM63 °FPartly sunny.12 mph83%30.09 "HgN/A
9:50 AM63 °FPartly sunny.9 mph83%30.09 "HgN/A
8:50 AM57 °FScattered clouds.2 mph77%30.07 "HgN/A
7:50 AM57 °FClear.3 mph77%30.04 "Hg10 mi
6:50 AM59 °FClear.5 mph77%30.01 "Hg10 mi
5:50 AM59 °FPassing clouds.8 mph72%30.01 "HgN/A
Weather by CustomWeather, © 2015

See weather overviewHow to use our weather pages